FW1048 Weather Reports


Display with metric or nautical units.
time (UTC)temp
F
wind
direction
speed
MPH
gust
MPH
rain 1hr
in
rain 24hr
in
rain mn
in
humidity
%
barometer
mb
20260506142811 58 299 1.0 3.0 0.01 2.36 1.46 96 1010.1
20260506142311 58 299 0.0 2.0 0.01 2.36 1.46 96 1010.1
20260506141811 58 299 0.0 3.0 0.01 2.36 1.46 96 1010.1
20260506141311 58 299 0.0 3.0 0.02 2.36 1.46 96 1010.1
20260506140811 58 299 0.0 3.0 0.03 2.37 1.46 96 1010.1
20260506140311 58 299 0.0 2.0 0.04 2.37 1.46 96 1010.2
20260506135811 58 299 0.0 2.0 0.06 2.37 1.46 96 1010.3
20260506135311 58 299 1.0 3.0 0.08 2.37 1.46 96 1010.3
20260506134311 58 26 1.0 2.0 0.12 2.38 1.46 96 1010.4
20260506133811 58 118 1.0 3.0 0.13 2.38 1.46 97 1010.4
20260506133311 58 118 0.0 5.0 0.13 2.38 1.46 97 1010.5
20260506132810 58 123 2.0 5.0 0.14 2.39 1.46 97 1010.5
20260506132311 58 179 2.0 7.0 0.16 2.39 1.46 97 1010.5
20260506131312 58 99 1.0 3.0 0.17 2.39 1.45 97 1010.5
20260506130810 58 267 1.0 2.0 0.18 2.37 1.43 97 1010.6
20260506130311 58 267 0.0 2.0 0.18 2.37 1.43 97 1010.5
20260506125811 58 267 0.0 2.0 0.17 2.35 1.41 97 1010.4
20260506125311 57 267 1.0 3.0 0.17 2.33 1.39 97 1010.5
20260506124811 57 267 0.0 3.0 0.17 2.31 1.36 97 1010.4
20260506124311 57 266 0.0 2.0 0.17 2.30 1.35 97 1010.5
20260506123811 57 266 0.0 3.0 0.17 2.28 1.33 97 1010.4
20260506123311 57 266 1.0 3.0 0.19 2.28 1.33 97 1010.4
20260506122811 57 266 2.0 3.0 0.19 2.28 1.31 97 1010.5
20260506121810 57 0 1.0 3.0 0.20 2.27 1.30 97 1010.7
20260506121311 57 140 2.0 3.0 0.18 2.25 1.28 98 1010.7
20260506120810 57 274 0.0 3.0 0.16 2.23 1.25 98 1010.7
20260506120311 57 266 1.0 3.0 0.15 2.23 1.24 98 1010.7
20260506115811 57 192 1.0 3.0 0.14 2.23 1.24 98 1010.8
20260506115310 58 64 1.0 3.0 0.13 2.22 1.22 98 1010.9
20260506114811 57 136 0.0 3.0 0.11 2.20 1.20 98 1010.7
20260506113811 57 172 0.0 1.0 0.08 2.17 1.16 98 1010.5
20260506113311 57 172 0.0 1.0 0.08 2.17 1.14 98 1010.5
20260506112810 57 172 0.0 2.0 0.07 2.16 1.13 98 1010.6
20260506112311 57 172 0.0 2.0 0.06 2.16 1.12 98 1010.7
20260506111811 57 172 1.0 2.0 0.06 2.15 1.10 98 1010.7
20260506111312 57 172 0.0 2.0 0.05 2.14 1.09 98 1010.7
20260506105811 57 172 1.0 3.0 0.05 2.17 1.09 98 1010.7
20260506105311 58 172 1.0 2.0 0.05 2.17 1.09 98 1010.8
20260506104811 58 172 1.0 1.0 0.04 2.16 1.09 98 1010.7
20260506104311 58 172 0.0 2.0 0.05 2.17 1.09 98 1010.7
20260506103811 58 172 1.0 2.0 0.04 2.16 1.08 98 1010.7
20260506103310 58 171 0.0 1.0 0.02 2.14 1.06 98 1010.8
20260506102810 58 171 0.0 1.0 0.02 2.13 1.06 98 1011.0
20260506102311 57 171 0.0 1.0 0.02 2.13 1.06 98 1011.1
20260506101811 58 171 0.0 1.0 0.02 2.13 1.05 98 1011.0
20260506101311 57 171 0.0 2.0 0.02 2.13 1.05 98 1011.2
20260506100811 57 171 0.0 2.0 0.02 2.13 1.05 98 1011.2
20260506100311 57 171 0.0 0.0 0.02 2.13 1.05 98 1011.1
20260506095810 57 171 0.0 0.0 0.03 2.13 1.05 98 1011.1
20260506095310 57 171 0.0 0.0 0.04 2.13 1.05 98 1011.2
20260506094810 57 171 0.0 0.0 0.06 2.13 1.05 98 1011.2
20260506094311 57 171 0.0 0.0 0.06 2.12 1.04 98 1011.2
20260506092811 57 171 0.0 2.0 0.13 2.12 1.04 98 1011.3
20260506092310 57 171 1.0 2.0 0.17 2.12 1.04 98 1011.3
20260506091810 56 171 0.0 1.0 0.21 2.11 1.03 98 1011.3
20260506091310 56 171 0.0 2.0 0.24 2.11 1.03 98 1011.3
20260506090811 56 171 0.0 3.0 0.28 2.11 1.03 98 1011.3
20260506090310 56 172 0.0 3.0 0.29 2.10 1.02 98 1011.3
20260506085810 56 240 1.0 3.0 0.31 2.09 1.02 98 1011.2
20260506085311 56 240 0.0 2.0 0.31 2.09 1.01 98 1011.4
20260506084810 56 105 0.0 2.0 0.30 2.07 0.99 98 1011.3
20260506084311 56 105 1.0 5.0 0.31 2.06 0.98 98 1011.5
20260506083810 55 105 0.0 5.0 0.30 2.05 0.97 98 1011.5
20260506083310 55 130 1.0 3.0 0.29 2.02 0.94 98 1011.3
20260506082811 55 119 1.0 3.0 0.28 1.99 0.91 98 1011.2
20260506082312 55 119 1.0 3.0 0.25 1.94 0.87 98 1011.3
20260506081811 55 133 2.0 3.0 0.23 1.90 0.82 98 1011.2
20260506081310 56 115 1.0 3.0 0.22 1.87 0.79 98 1011.1
20260506080310 56 165 1.0 3.0 0.22 1.81 0.73 98 1010.9
20260506073311 56 164 0.0 0.0 0.24 1.73 0.65 98 1011.3
20260506072810 56 164 0.0 0.0 0.24 1.71 0.63 98 1011.3
20260506072310 56 164 0.0 1.0 0.22 1.69 0.61 98 1011.3
20260506071810 56 164 0.0 1.0 0.20 1.67 0.59 98 1011.3
20260506071310 56 164 0.0 0.0 0.17 1.65 0.57 98 1011.3
20260506070810 56 164 0.0 3.0 0.14 1.61 0.54 98 1011.3
20260506070310 56 167 0.0 3.0 0.12 1.59 0.51 98 1011.3
20260506062310 56 153 0.0 2.0 0.00 1.47 0.39 98 1011.0
20260506061810 56 145 0.0 0.0 0.00 1.47 0.39 98 1011.1
20260506060811 56 145 0.0 2.0 0.00 1.47 0.39 98 1011.0
20260506060310 56 145 0.0 2.0 0.00 1.47 0.39 98 1011.0
20260506051310 54 148 0.0 0.0 0.00 1.47 0.39 98 1011.0
20260506050810 54 148 0.0 3.0 0.00 1.47 0.39 98 1011.0
20260506050310 54 147 0.0 3.0 0.00 1.47 0.39 98 1011.1
20260506043310 54 252 0.0 2.0 0.00 1.47 0.39 98 1010.8
20260506042810 54 252 1.0 2.0 0.00 1.47 0.39 98 1011.0
20260506042310 54 252 1.0 1.0 0.00 1.47 0.39 98 1011.1
20260506041809 54 252 0.0 1.0 0.00 1.47 0.39 98 1011.1
20260506040810 54 252 0.0 2.0 0.04 1.47 0.39 98 1011.2
20260506040310 54 252 1.0 2.0 0.06 1.47 0.39 98 1011.2
20260506035810 54 252 0.0 2.0 0.11 1.47 0.39 98 1011.2
20260506035310 54 252 0.0 1.0 0.12 1.47 0.39 98 1011.2
20260506034810 54 252 0.0 1.0 0.12 1.47 0.39 98 1011.2
20260506034310 54 252 0.0 0.0 0.12 1.47 0.39 98 1011.3
20260506033309 54 252 0.0 0.0 0.12 1.47 0.39 98 1011.2
20260506032810 54 252 0.0 0.0 0.12 1.47 0.39 98 1011.3
20260506032310 54 252 0.0 0.0 0.12 1.47 0.39 98 1011.3
20260506031810 54 252 0.0 1.0 0.12 1.47 0.39 98 1011.3
20260506030810 54 252 0.0 2.0 0.08 1.43 0.35 98 1011.3
20260506025810 54 252 0.0 0.0 0.01 1.36 0.28 98 1011.4
20260506025310 54 252 0.0 0.0 0.00 1.35 0.28 98 1011.5
20260506024810 54 252 0.0 0.0 0.00 1.35 0.28 98 1011.4
20260506024310 54 252 0.0 0.0 0.00 1.35 0.28 98 1011.4
20260506023809 54 252 0.0 0.0 0.00 1.35 0.28 98 1011.6
20260506023310 54 252 0.0 0.0 0.00 1.35 0.28 98 1011.5
20260506022810 55 252 0.0 0.0 0.00 1.35 0.28 98 1011.6
20260506022310 55 252 0.0 1.0 0.00 1.35 0.28 98 1011.7
20260506021809 55 252 0.0 1.0 0.00 1.35 0.28 98 1011.8
20260506021310 55 252 0.0 2.0 0.01 1.35 0.28 98 1011.9
20260506020810 55 252 0.0 2.0 0.01 1.35 0.28 98 1011.9
20260506020310 55 252 1.0 2.0 0.02 1.35 0.28 98 1011.9
20260506015810 55 252 0.0 2.0 0.02 1.35 0.28 98 1011.8
20260506015310 54 246 1.0 2.0 0.02 1.35 0.28 98 1012.0
20260506014810 54 246 1.0 2.0 0.03 1.35 0.28 98 1011.9
20260506014309 54 246 0.0 1.0 0.04 1.35 0.28 98 1011.9
20260506013810 54 246 0.0 0.0 0.05 1.35 0.28 98 1011.8
20260506013310 54 246 0.0 0.0 0.05 1.35 0.28 98 1011.8
20260506012809 54 246 0.0 0.0 0.06 1.35 0.28 98 1011.8
20260506012310 54 246 0.0 0.0 0.06 1.35 0.28 98 1011.6
20260506011809 54 246 0.0 0.0 0.09 1.35 0.28 98 1011.7
20260506011310 54 246 0.0 0.0 0.08 1.35 0.27 98 1011.6
20260506010809 54 246 0.0 0.0 0.08 1.35 0.27 98 1011.6
20260506010310 54 246 0.0 0.0 0.07 1.34 0.26 98 1011.6
20260506005810 54 246 0.0 0.0 0.06 1.33 0.25 98 1011.6
20260506005310 54 246 0.0 0.0 0.06 1.33 0.25 98 1011.5
20260506004809 55 246 0.0 1.0 0.06 1.32 0.24 98 1011.6
20260506004310 55 246 0.0 2.0 0.05 1.31 0.24 98 1011.5
20260506003809 55 246 0.0 2.0 0.04 1.31 0.23 98 1011.5
20260506003310 54 246 0.0 2.0 0.05 1.31 0.23 98 1011.6
20260506001809 54 246 1.0 1.0 0.06 1.27 0.19 98 1011.6
20260506001310 54 246 0.0 0.0 0.08 1.27 0.19 98 1011.7
20260506000809 54 246 0.0 1.0 0.10 1.27 0.19 98 1011.8
20260506000309 54 246 1.0 1.0 0.13 1.27 0.19 98 1011.9
20260505235809 54 246 0.0 1.0 0.15 1.27 0.19 98 1011.9
20260505235310 54 246 0.0 1.0 0.17 1.27 0.19 98 1011.9
20260505234810 54 246 0.0 2.0 0.18 1.27 0.19 98 1012.0
20260505234310 54 246 0.0 2.0 0.18 1.27 0.19 98 1012.0
20260505233809 54 246 0.0 1.0 0.18 1.27 0.19 98 1012.1
20260505232810 54 246 1.0 2.0 0.17 1.25 0.17 98 1012.3
20260505232309 54 246 1.0 2.0 0.15 1.23 0.15 98 1012.2
20260505231809 54 246 0.0 1.0 0.13 1.20 0.13 98 1012.3
20260505231310 54 246 0.0 0.0 0.11 1.19 0.11 98 1012.4
20260505230810 54 246 0.0 2.0 0.09 1.17 0.09 98 1012.5
20260505230309 54 246 1.0 2.0 0.06 1.14 0.06 98 1012.4
20260505225809 54 246 0.0 2.0 0.04 1.12 0.04 98 1012.3
20260505225310 54 246 0.0 2.0 0.02 1.09 0.02 98 1012.2
20260505224809 54 246 0.0 2.0 0.01 1.09 0.01 98 1012.1
20260505224309 54 246 0.0 2.0 0.01 1.09 0.01 98 1012.2
20260505223809 54 246 0.0 0.0 0.01 1.09 0.01 98 1012.3
20260505223309 54 245 0.0 2.0 0.00 1.08 0.00 98 1012.3
20260505222809 54 245 0.0 2.0 0.00 1.08 0.00 98 1012.4
20260505222309 54 224 1.0 2.0 0.01 1.08 0.00 98 1012.5
20260505221809 54 177 0.0 2.0 0.02 1.08 0.00 98 1012.5
20260505221309 54 177 0.0 2.0 0.02 1.08 0.00 98 1012.6
20260505220817 54 177 0.0 1.0 0.02 1.08 0.00 98 1012.6
20260505220309 54 177 0.0 2.0 0.02 1.08 0.00 98 1012.5
20260505215310 54 177 1.0 3.0 0.02 1.08 1.08 98 1012.5
20260505214809 54 177 1.0 3.0 0.02 1.08 1.08 97 1012.5
20260505214308 54 268 1.0 3.0 0.02 1.08 1.08 97 1012.6
20260505213809 54 304 1.0 2.0 0.02 1.08 1.08 98 1012.6
20260505213309 54 304 0.0 2.0 0.02 1.08 1.08 98 1012.6
20260505212309 54 304 0.0 2.0 0.02 1.07 1.07 98 1012.7
20260505211809 54 304 0.0 2.0 0.02 1.06 1.06 97 1012.8
20260505211309 54 304 0.0 2.0 0.02 1.06 1.06 97 1012.7
20260505210809 54 304 0.0 1.0 0.05 1.06 1.06 97 1012.8
20260505205809 54 304 0.0 1.0 0.06 1.06 1.06 97 1012.8
20260505204809 54 304 0.0 2.0 0.13 1.06 1.06 97 1012.8
20260505204309 54 304 1.0 2.0 0.14 1.06 1.06 97 1012.8
20260505203309 54 304 0.0 3.0 0.20 1.06 1.06 97 1012.7
20260505202309 54 306 2.0 3.0 0.25 1.06 1.06 97 1012.8
20260505201309 54 17 0.0 2.0 0.28 1.04 1.04 97 1012.8
20260505200809 54 17 0.0 1.0 0.29 1.02 1.02 97 1012.8
20260505200309 54 17 0.0 2.0 0.31 1.02 1.02 97 1012.8
20260505195809 54 17 0.0 3.0 0.31 1.00 1.00 97 1012.8
20260505195309 54 337 0.0 3.0 0.31 0.98 0.98 97 1012.8
20260505194809 54 69 0.0 2.0 0.29 0.94 0.94 97 1012.9
20260505194309 54 69 0.0 1.0 0.31 0.91 0.91 97 1012.8
20260505193809 54 69 0.0 1.0 0.30 0.87 0.87 97 1012.8
20260505193310 54 69 0.0 2.0 0.30 0.85 0.85 97 1012.6
20260505192809 54 69 0.0 2.0 0.29 0.83 0.83 97 1012.8
20260505191309 54 323 0.0 1.0 0.29 0.76 0.76 96 1012.5
20260505190809 54 323 0.0 2.0 0.28 0.72 0.72 96 1012.5
20260505190308 54 323 1.0 3.0 0.26 0.70 0.70 96 1012.5
20260505185809 54 323 1.0 3.0 0.25 0.69 0.69 96 1012.5
20260505185309 54 292 1.0 3.0 0.25 0.67 0.67 96 1012.5
20260505184809 54 289 1.0 3.0 0.24 0.65 0.65 96 1012.4
20260505184308 54 171 2.0 3.0 0.21 0.61 0.61 96 1012.4
20260505183309 54 149 0.0 3.0 0.18 0.55 0.55 96 1012.4
20260505182808 54 150 2.0 3.0 0.17 0.54 0.54 96 1012.4
20260505182308 54 107 1.0 2.0 0.15 0.50 0.50 96 1012.4
20260505181309 54 107 1.0 3.0 0.13 0.46 0.46 96 1012.3
20260505180809 54 107 2.0 3.0 0.12 0.45 0.45 96 1012.4
20260505175809 54 11 0.0 2.0 0.13 0.43 0.43 96 1012.4
20260505175308 54 2 1.0 3.0 0.12 0.42 0.42 96 1012.5
20260505174809 54 0 1.0 3.0 0.13 0.41 0.41 96 1012.5
20260505174308 54 138 2.0 3.0 0.13 0.39 0.39 96 1012.5
20260505173308 54 134 2.0 5.0 0.12 0.37 0.37 95 1012.6
20260505172808 54 163 3.0 3.0 0.12 0.36 0.36 95 1012.6
20260505172310 54 163 1.0 3.0 0.10 0.35 0.35 95 1012.6
20260505171808 54 163 0.0 3.0 0.10 0.34 0.34 95 1012.6
20260505170808 54 163 2.0 3.0 0.11 0.33 0.33 95 1012.6
20260505170308 54 248 0.0 1.0 0.09 0.31 0.31 95 1012.6
20260505165809 54 248 0.0 1.0 0.09 0.31 0.31 95 1012.8
20260505165308 54 248 0.0 0.0 0.09 0.30 0.30 95 1012.8
20260505164809 54 248 0.0 1.0 0.08 0.28 0.28 95 1012.8
20260505164309 54 248 0.0 1.0 0.06 0.27 0.27 95 1012.9
20260505163308 54 248 0.0 0.0 0.05 0.25 0.25 95 1013.0
20260505161809 54 248 0.0 3.0 0.04 0.24 0.24 94 1013.0
20260505161310 54 246 2.0 3.0 0.03 0.23 0.23 94 1013.0
20260505160809 54 275 2.0 3.0 0.03 0.22 0.22 94 1013.0
20260505160309 54 275 2.0 3.0 0.02 0.21 0.21 94 1013.1
20260505153308 55 172 0.0 3.0 0.02 0.20 0.20 94 1013.3
20260505152808 55 172 1.0 3.0 0.02 0.20 0.20 94 1013.3
20260505152309 55 270 0.0 3.0 0.02 0.20 0.20 94 1013.2
20260505151808 55 270 2.0 3.0 0.02 0.20 0.20 93 1013.3
20260505151308 55 302 1.0 5.0 0.02 0.20 0.20 93 1013.4
20260505150308 55 327 2.0 3.0 0.02 0.19 0.19 93 1013.3